LIPXLIRQ

Guest
Details From LIPX - Villafranca
To LIRQ - Firenze
Flight Number -
Tags Generated
Created
Modified
Stats Distance 96 nm / 178 km
Max Altitude 0 ft / 0 m
Waypoints 2
Social Downloads 0
Likes 0
Share VATSIM

Download

Looking for another format? Having issues loading an existing format? Contact us
Advertisement - Login to hide

Notes

Generated

Route

LIPX LIRQ

ID Type Via Altitude (ft/m) Position (lat/lon) Dist (leg/tot) Name
O LIPX APT - 0 / 0 45.38732 / 10.87633 - / 0 nm
O LIRQ APT - 0 / 0 43.80507 / 11.19741 96 / 96 nm

Altitude Profile

Advertisement - Login to hide

LIPX

Details ICAO LIPX (VRN)
Name VILLAFRANCA
Region Italy
Timezone Europe/Rome (UTC+2.0)
Stats Elevation 237 ft / 72 m (AMSL)
Location 45.397000° 10.890300°
Runways 1
Magnetic Variation 3.025° E

METAR

LIPX 241450Z 36008KT 9999 -RA FEW030CB SCT040 21/17 Q1012

Decode

TAF

Not found

Departure Runways

ID Width Length Bearing (true/mag) Surface Threshold Overrun Markings Lighting
04 148 ft / 45 m 10,063 ft / 3,067 m 45.60° / 42.58° ASPHALT 190 ft / 58 m 0 ft / 0 m PREC-APP CENTERLINE EDGE THRESHOLD ALSF-II TDZ
22 148 ft / 45 m 10,063 ft / 3,067 m 225.62° / 222.60° ASPHALT 1,345 ft / 410 m 0 ft / 0 m PREC-APP CENTERLINE EDGE THRESHOLD SALS

LIRQ

Details ICAO LIRQ (FLR)
Name Firenze
Region Italy
Timezone Europe/Rome (UTC+2.0)
Stats Elevation 142 ft / 43 m (AMSL)
Location 43.810000° 11.205100°
Runways 1
Magnetic Variation 3.034° E

METAR

LIRQ 241450Z VRB03KT 9999 SCT040 24/14 Q1013

Decode

TAF

TAF LIRQ 241100Z 2412/2512 24007KT 9999 SCT030

Decode

Destination Runways

ID Width Length Bearing (true/mag) Surface Threshold Overrun Markings Lighting
05 98 ft / 30 m 5,133 ft / 1,565 m 48.11° / 45.08° ASPHALT 344 ft / 105 m 0 ft / 0 m PREC-APP EDGE THRESHOLD SSALF REIL-OMNI
23 98 ft / 30 m 5,133 ft / 1,565 m 228.12° / 225.09° ASPHALT 1,909 ft / 582 m 0 ft / 0 m PREC-APP EDGE THRESHOLD REIL-OMNI

Approach Navaids

Runway Type Ident Frequency Range Bearing (true/mag) Slope Elevation
05 DME IFZ 110.30 MHz 18 nm / 33 km - - 144 ft / 44 m (AMSL)
05 LOC-ILS IFZ 110.30 MHz 18 nm / 33 km 48.10° / 45.07 ° - 131 ft / 40 m (AMSL)
05 GS IFZ 110.30 MHz 10 nm / 19 km 47.00° / 43.97 ° 3.00° 144 ft / 44 m (AMSL)

Popular Alternatives